Location: Newark
(46.7000°N, 60.6000°W)
Time: 13:42:57
(UTC+00:00)

A-11 Canister half - Pass Details

Date: 29 October 2020
Orbit: 1525 x 1684 km, 47.3° (Epoch: 01 December)

Event Time Altitude Azimuth Distance (km) Brightness Sun altitude
Rises 15:46:11 0° 181° (S) 4,822 12.8 29.5°
Reaches altitude 10° 15:50:47 10° 163° (SSE) 3,809 12.4 29.5°
Maximum altitude 15:56:22 17° 126° (SE) 3,241 11.3 29.5°
Drops below altitude 10° 16:01:51 10° 90° (E) 3,748 11.1 29.4°
Sets 16:06:16 0° 72° (ENE) 4,712 11.3 29.4°
